Spokane Fairchild, WA

5:26 PM PDT on June 27, 2017 (GMT -0700)
Fairchild Air Force Base

Weather History for KSKA - January, 2013

Change the Weather History Date:

Friday, January 18, 2013

  Actual Average Record
Temperature  
Mean Temperature 18 °F -  
Max Temperature 24 °F 32 °F 44 °F (2005)
Min Temperature 12 °F 23 °F 12 °F (2013)
Degree Days  
Heating Degree Days 47    
Moisture  
Dew Point 18 °F    
Average Humidity 100    
Maximum Humidity 100    
Minimum Humidity 99    
Precipitation  
Precipitation 0.00 in - - ()
Snow  
Snow 0.00 in - - ()
Snow Depth 3.00 in    
Sea Level Pressure  
Sea Level Pressure 30.32 in    
Wind  
Wind Speed 2 mph (NE)    
Max Wind Speed 6 mph    
Max Gust Speed -    
Visibility 3 miles    
Events Fog , Snow    
Averages and records for this station are not official NWS values.
T = Trace of Precipitation, MM = Missing Value Source: NWS Daily Summary

Daily Weather History Graph

Daily Weather History Graph

Search for Another Location

Airport or City:

Trip Planner

Search our weather history database for the weather conditions in past years. The results will help you decide how hot, cold, wet, or windy it might be!

Date:

Astronomy

Jan. 18, 2013 Rise Set
Actual Time 7:31 AM PST 4:31 PM PST
Civil Twilight 6:57 AM PST 5:05 PM PST
Nautical Twilight 6:19 AM PST 5:43 PM PST
Astronomical Twilight 5:42 AM PST 6:20 PM PST
Moon 10:36 AM PST (1/18) 12:00 AM PST (1/18)
Length of Visible Light 10h 08m
Length of Day
8h 59m
Waxing Crescent, 48% of the Moon is Illuminated
Jan 18
Waxing Crescent
Jan 18
First Quarter
Jan 26
Full
Feb 3
Last Quarter
Feb 9
New

Hourly Weather History & Observations

Time (PST) Temp. Windchill Dew Point Humidity Pressure Visibility Wind Dir Wind Speed Gust Speed Precip Events Conditions
12:30 AM 19.4 °F 14.3 °F 19.4 °F 100% 30.42 in 0.5 mi South 3.5 mph - N/A Fog Light Freezing Fog
12:47 AM 19.4 °F - 19.4 °F 100% 30.41 in 1.0 mi SE 1.2 mph - N/A   Mist
12:55 AM 19.0 °F - 19.0 °F 100% 30.40 in 0.8 mi South 2.3 mph - N/A   Mist
1:07 AM 19.4 °F - 19.4 °F 100% 30.42 in 0.2 mi South 2.3 mph - N/A Fog Light Freezing Fog
1:55 AM 19.8 °F - 19.8 °F 100% 30.42 in 0.2 mi Calm Calm - N/A Fog Light Freezing Fog
2:55 AM 19.9 °F - 19.9 °F 100% 30.40 in 0.2 mi West 1.2 mph - N/A Fog Light Freezing Fog
3:34 AM 19.4 °F - 19.4 °F 100% 30.40 in 0.8 mi Calm Calm - N/A   Mist
3:45 AM 19.4 °F - 19.4 °F 100% 30.40 in 0.5 mi Calm Calm - N/A Fog Light Freezing Fog
3:55 AM 19.9 °F - 19.9 °F 100% 30.39 in 0.5 mi Calm Calm - N/A Fog Light Freezing Fog
4:26 AM 19.4 °F - 19.4 °F 100% 30.39 in 0.2 mi East 2.3 mph - N/A Fog Light Freezing Fog
4:55 AM 18.9 °F - 18.9 °F 100% 30.39 in 0.2 mi ENE 2.3 mph - N/A Fog Light Freezing Fog
5:55 AM 18.1 °F - 18.1 °F 100% 30.36 in 0.8 mi East 2.3 mph - N/A   Mist
6:32 AM 17.6 °F 12.3 °F 17.6 °F 100% 30.38 in 3.0 mi NNE 3.5 mph - N/A   Mostly Cloudy
7:26 AM 17.6 °F - 17.6 °F 100% 30.25 in 5.0 mi Calm Calm - N/A Snow Light Snow
7:31 AM 17.6 °F - 17.6 °F 100% 30.25 in 4.0 mi Calm Calm - N/A Snow Light Snow
7:58 AM 18.1 °F - 18.1 °F 100% 30.38 in 5.0 mi NE 2.3 mph - 0.00 in   Clear
8:58 AM 18.3 °F - 18.3 °F 100% 30.37 in 5.0 mi East 1.2 mph - 0.00 in   Clear
9:58 AM 19.8 °F 14.7 °F 19.8 °F 100% 30.37 in 8.0 mi NNE 3.5 mph - N/A   Partly Cloudy
10:58 AM 20.1 °F 13.6 °F 20.1 °F 100% 30.37 in 7.0 mi NNE 4.6 mph - N/A   Scattered Clouds
11:58 AM 20.5 °F - 20.5 °F 100% 30.35 in 7.0 mi SSE 2.3 mph - 0.00 in Snow Light Snow
12:58 PM 21.7 °F 14.3 °F 21.7 °F 100% 30.33 in 7.0 mi South 5.8 mph - 0.00 in   Overcast
2:58 PM 24.1 °F 17.0 °F 24.1 °F 100% 30.33 in 7.0 mi NNE 5.8 mph - 0.00 in   Clear
3:09 PM 23.0 °F 17.0 °F 23.0 °F 100% 30.22 in 7.0 mi NNE 4.6 mph - N/A   Clear
3:20 PM 21.2 °F 14.9 °F 21.2 °F 100% 30.22 in 7.0 mi NNE 4.6 mph - N/A   Clear
3:58 PM 23.0 °F - 23.0 °F 100% 30.34 in 6.0 mi Variable 1.2 mph - N/A   Clear
4:31 PM 19.4 °F - 19.4 °F 100% 30.23 in 4.0 mi ENE 2.3 mph - N/A   Clear
4:36 PM 17.6 °F 12.3 °F 17.6 °F 100% 30.23 in 4.0 mi NE 3.5 mph - N/A   Clear
4:58 PM 18.3 °F - 18.3 °F 100% 30.35 in 5.0 mi NE 2.3 mph - 0.00 in   Clear
5:41 PM 17.6 °F - 17.6 °F 100% 30.23 in 5.0 mi ENE 2.3 mph - N/A Snow Light Snow
5:54 PM 17.6 °F - 17.6 °F 100% 30.23 in 1.8 mi Calm Calm - N/A Snow Light Snow
5:58 PM 17.8 °F - 17.6 °F 99% 30.36 in 1.0 mi Calm Calm - 0.00 in Snow Light Snow
6:00 PM 17.6 °F - 17.6 °F 100% 30.23 in 1.0 mi Calm Calm - N/A   Clear
6:05 PM 17.6 °F - 17.6 °F 100% 30.23 in 0.8 mi Calm Calm - N/A   Clear
6:10 PM 17.6 °F - 17.6 °F 100% 30.23 in 0.2 mi Calm Calm - N/A Fog Light Freezing Fog
6:30 PM 19.4 °F - 19.4 °F 100% 30.23 in 0.5 mi North 1.2 mph - N/A Fog Light Freezing Fog
6:42 PM 19.4 °F - 19.4 °F 100% 30.23 in 3.0 mi North 2.3 mph - N/A   Clear
6:44 PM 17.6 °F - 17.6 °F 100% 30.23 in 6.0 mi NNE 1.2 mph - N/A Snow Light Snow
6:50 PM 19.4 °F - 19.4 °F 100% 30.23 in 4.0 mi North 2.3 mph - N/A   Clear
6:58 PM 19.0 °F 13.9 °F 19.0 °F 100% 30.36 in 5.0 mi North 3.5 mph - 0.00 in   Clear
7:49 PM 15.8 °F 10.2 °F 15.8 °F 100% 30.24 in 7.0 mi NNE 3.5 mph - N/A   Clear
7:58 PM 16.2 °F - 16.2 °F 100% 30.37 in 3.0 mi NE 2.3 mph - N/A   Clear
8:04 PM 15.8 °F - 15.8 °F 100% 30.24 in 0.5 mi Calm Calm - N/A Fog Light Freezing Fog
8:07 PM 15.8 °F - 15.8 °F 100% 30.24 in 0.2 mi NE 1.2 mph - N/A Fog , Snow Light Freezing Fog
8:29 PM 14.0 °F - 14.0 °F 100% 30.24 in 0.2 mi Calm Calm - N/A Fog Light Freezing Fog
8:58 PM 16.5 °F - 16.5 °F 100% 30.39 in 0.2 mi NE 2.3 mph - 0.00 in Fog Light Freezing Fog
10:03 PM 14.0 °F - 14.0 °F 100% 30.27 in 0.2 mi Calm Calm - N/A Fog Light Freezing Fog
10:48 PM 12.2 °F - 12.2 °F 100% 30.27 in 0.2 mi Calm Calm - N/A Fog , Snow Light Freezing Fog
10:58 PM 12.2 °F - 12.2 °F 100% 30.40 in 0.2 mi Calm Calm - 0.00 in Fog , Snow Light Freezing Fog
10:59 PM 12.2 °F - 12.2 °F 100% 30.27 in 0.2 mi Calm Calm - N/A Fog Light Freezing Fog
11:58 PM 12.2 °F 6.1 °F 12.2 °F 100% 30.41 in 0.2 mi NNE 3.5 mph - 0.00 in Fog Light Freezing Fog